This is the latest recevied weather packets stored in our database for station/object IA5FYI-13. If no packets are shown the sender has not sent any weather packets the latest 1 day(s).
| Time | Temp. | Humidity | Pressure | Rain* | Wind** | Luminosity | Snow |
|---|---|---|---|---|---|---|---|
| 1778052310 | 17.78° C | 90% | 1008.5 hPa | 7.11 mm | - | - | - |
| 1778051414 | 17.78° C | 90% | 1008.1 hPa | 3.05 mm | - | - | - |
| 1778051111 | 17.78° C | 90% | 1008.1 hPa | 1.27 mm | - | - | - |
| 1778050835 | 17.78° C | 90% | 1008.1 hPa | 4.32 mm | - | - | - |
| 1778050214 | 17.78° C | 89% | 1008.5 hPa | 1.78 mm | - | - | - |
| 1778049616 | 17.22° C | 89% | 1008.5 hPa | 0 mm | - | - | - |
| 1778049024 | 17.22° C | 88% | 1008.8 hPa | 0 mm | - | - | - |
| 1778048709 | 17.22° C | 88% | 1008.5 hPa | 0 mm | - | - | - |
| 1778048113 | 17.22° C | 88% | 1008.5 hPa | 0 mm | - | - | - |
| 1778046313 | 17.78° C | 89% | 1008.5 hPa | 4.57 mm | - | - | - |
| 1778045110 | 17.22° C | 89% | 1008.1 hPa | 3.81 mm | - | - | - |
| 1778044813 | 17.22° C | 89% | 1008.1 hPa | 3.81 mm | - | - | - |
| 1778044214 | 17.22° C | 89% | 1008.1 hPa | 1.52 mm | - | - | - |
| 1778043309 | 17.22° C | 89% | 1008.1 hPa | 26.42 mm | - | - | - |
| 1778043013 | 17.22° C | 88% | 1008.1 hPa | 26.42 mm | - | - | - |
| 1778042414 | 17.22° C | 89% | 1008.1 hPa | 25.65 mm | - | - | - |
| 1778041824 | 17.22° C | 89% | 1008.1 hPa | 18.03 mm | - | - | - |
| 1778041213 | 17.22° C | 90% | 1008.1 hPa | 14.73 mm | - | - | - |
| 1778040913 | 17.22° C | 91% | 1007.8 hPa | 9.14 mm | - | - | - |
| 1778040614 | 17.22° C | 92% | 1008.1 hPa | 6.1 mm | - | - | - |
| 1778040034 | 17.22° C | 93% | 1008.1 hPa | 12.45 mm | - | - | - |
| 1778039709 | 17.22° C | 93% | 1007.8 hPa | 9.65 mm | - | - | - |
| 1778039413 | 17.22° C | 93% | 1008.1 hPa | 9.65 mm | - | - | - |
| 1778039112 | 17.22° C | 93% | 1007.8 hPa | 8.38 mm | - | - | - |
| 1778038813 | 17.22° C | 94% | 1007.8 hPa | 8.38 mm | - | - | - |
* Rain latest hour (hover to see other rain measurements)
** Current wind speed in m/s (hover to see current wind gust speed)